Terug naar catalogus

DELTA 1 DEB

ActiefSSO
NORAD 10871·DEBRIS·🇺🇸 United States

Gelanceerd Jul 29, 1976 vanaf Vandenberg Space Force Base

Loading…

Volgende Passages (komende 24 uur)

TLE

VersSource: Space-Track

Epoch: Sep 14, 2026, 09:24 UTC

1 10871U 76077CZ  26257.39181476  .00000189  00000-0  15854-2 0  9998
2 10871 101.8968 233.0752 0275846 324.9571 193.1856 12.37716075258396

Volg DELTA 1 DEB in realtime met AllMySat

Download on the App Store